Rochester, NY

5:05 AM EST on February 06, 2016 (GMT -0500)
Greater Rochester International

Weather History for KROC - January, 2014

Change the Weather History Date:

Monday, January 20, 2014

  Actual Average Record
Temperature  
Mean Temperature 21 °F 24 °F  
Max Temperature 31 °F 31 °F 58 °F (1951)
Min Temperature 11 °F 17 °F -9 °F (1994)
Degree Days  
Heating Degree Days 44 41  
Month to date heating degree days 801 803  
Since 1 July heating degree days 3298 3256  
Cooling Degree Days 0 0  
Month to date cooling degree days 0 0  
Year to date cooling degree days 0 0  
Moisture  
Dew Point 15 °F    
Average Humidity 76    
Maximum Humidity 92    
Minimum Humidity 59    
Precipitation  
Precipitation 0.10 in 0.08 in 1.26 in (1978)
Month to date precipitation 1.04 1.61  
Year to date precipitation 1.04 1.61  
Snow  
Snow 1.50 in 0.90 in 13.10 in (1978)
Month to date snowfall 15.4 18.3  
Since 1 July snowfall 51.4 47.5  
Snow Depth 1.00 in    
Sea Level Pressure  
Sea Level Pressure 29.73 in    
Wind  
Wind Speed 12 mph (NW)    
Max Wind Speed 25 mph    
Max Gust Speed 33 mph    
Visibility 6 miles    
Events Rain , Snow    
T = Trace of Precipitation, MM = Missing Value Source: NWS Daily Summary

Daily Weather History Graph

Daily Weather History Graph

Search for Another Location

Airport or City:

Trip Planner

Search our weather history database for the weather conditions in past years. The results will help you decide how hot, cold, wet, or windy it might be!

Date:

Astronomy

Jan. 20, 2014 Rise Set
Actual Time 7:36 AM EST 5:07 PM EST
Civil Twilight 7:05 AM EST 5:38 PM EST
Nautical Twilight 6:30 AM EST 6:13 PM EST
Astronomical Twilight 5:56 AM EST 6:47 PM EST
Moon 9:48 PM EST (1/20) 9:27 AM EST (1/20)
Length of Visible Light 10h 33m
Length of Day
9h 30m
Waning Gibbous, 83% of the Moon is Illuminated
Jan 20
Waning Gibbous
Jan 24
Last Quarter
Jan 30
New
Feb 6
First Quarter
Feb 14
Full

Hourly Weather History & Observations

Time (EST) Temp. Windchill Dew Point Humidity Pressure Visibility Wind Dir Wind Speed Gust Speed Precip Events Conditions
12:54 AM 30.9 °F 20.7 °F 21.9 °F 69% 29.54 in 10.0 mi West 13.8 mph 21.9 mph 0.00 in Snow Light Snow
1:54 AM 30.9 °F 20.7 °F 23.0 °F 72% 29.52 in 9.0 mi West 13.8 mph 28.8 mph 0.00 in   Overcast
2:54 AM 30.9 °F 21.2 °F 24.1 °F 76% 29.52 in 10.0 mi West 12.7 mph 24.2 mph 0.00 in Snow Light Snow
3:54 AM 30.9 °F 21.2 °F 25.0 °F 79% 29.52 in 6.0 mi West 12.7 mph - 0.00 in Snow Light Snow
4:06 AM 30.2 °F 22.6 °F 26.6 °F 86% 29.49 in 4.0 mi West 8.1 mph - 0.00 in Snow Light Snow
4:54 AM 30.0 °F 22.4 °F 27.0 °F 88% 29.53 in 4.0 mi West 8.1 mph - 0.01 in Snow Light Snow
5:54 AM 30.9 °F 23.5 °F 27.0 °F 85% 29.54 in 6.0 mi West 8.1 mph - 0.02 in Snow Light Snow
6:54 AM 30.9 °F 24.3 °F 27.0 °F 85% 29.56 in 5.0 mi West 6.9 mph - 0.01 in Snow Light Snow
7:50 AM 28.4 °F 18.5 °F 26.6 °F 93% 29.55 in 2.5 mi NNW 11.5 mph - 0.00 in Snow Light Snow
7:54 AM 28.9 °F 20.4 °F 26.1 °F 89% 29.59 in 2.5 mi North 9.2 mph - 0.01 in Snow Light Snow
8:26 AM 26.6 °F 15.2 °F 24.8 °F 93% 29.58 in 2.0 mi North 13.8 mph - 0.01 in Rain , Snow Light Freezing Rain
8:54 AM 26.1 °F 15.0 °F 21.9 °F 84% 29.63 in 1.8 mi North 12.7 mph 23.0 mph 0.01 in Rain , Snow Light Freezing Rain
9:07 AM 24.8 °F 14.0 °F 21.2 °F 86% 29.60 in 1.5 mi North 11.5 mph - 0.01 in Snow Light Snow
9:42 AM 24.8 °F 13.4 °F 21.2 °F 86% 29.62 in 1.0 mi North 12.7 mph - 0.02 in Snow Light Snow
9:54 AM 24.1 °F 13.1 °F 21.0 °F 88% 29.66 in 1.0 mi NNW 11.5 mph - 0.02 in Snow Light Snow
10:33 AM 24.8 °F 14.0 °F 21.2 °F 86% 29.62 in 2.0 mi North 11.5 mph - 0.00 in Snow Light Snow
10:44 AM 24.8 °F 14.0 °F 19.4 °F 80% 29.63 in 2.5 mi NNW 11.5 mph - 0.00 in Snow Light Snow
10:54 AM 23.0 °F 11.7 °F 18.0 °F 81% 29.68 in 2.5 mi NNW 11.5 mph - 0.00 in Snow Light Snow
11:38 AM 23.0 °F 13.1 °F 17.6 °F 80% 29.66 in 2.5 mi NNW 9.2 mph 19.6 mph 0.00 in Snow Light Snow
11:54 AM 21.9 °F 9.8 °F 17.1 °F 82% 29.70 in 4.0 mi NW 12.7 mph - 0.00 in Snow Light Snow
12:31 PM 21.2 °F 8.3 °F 15.8 °F 80% 29.69 in 2.0 mi NW 13.8 mph - 0.00 in Snow Light Snow
12:44 PM 21.2 °F 7.8 °F 14.0 °F 74% 29.70 in 0.8 mi NW 15.0 mph 21.9 mph 0.00 in Snow Light Snow
12:54 PM 19.9 °F 6.7 °F 15.1 °F 81% 29.74 in 0.8 mi NW 13.8 mph - 0.00 in Snow Light Snow
1:36 PM 19.4 °F 7.2 °F 10.4 °F 68% 29.72 in 5.0 mi NW 11.5 mph - 0.00 in Snow Light Snow
1:54 PM 19.0 °F 6.8 °F 9.0 °F 65% 29.77 in 8.0 mi NW 11.5 mph - 0.00 in Snow Light Snow
2:54 PM 18.0 °F 4.2 °F 8.1 °F 65% 29.82 in 5.0 mi NW 13.8 mph - 0.00 in Snow Light Snow
2:56 PM 17.6 °F 3.7 °F 8.6 °F 68% 29.78 in 2.5 mi NW 13.8 mph - 0.00 in Snow Light Snow
3:10 PM 17.6 °F 5.0 °F 8.6 °F 68% 29.79 in 3.0 mi WNW 11.5 mph 19.6 mph 0.00 in Snow Light Snow
3:54 PM 17.1 °F 3.0 °F 8.1 °F 68% 29.86 in 9.0 mi WNW 13.8 mph - 0.00 in Snow Light Snow
4:54 PM 16.0 °F 2.3 °F 3.9 °F 59% 29.90 in 10.0 mi NW 12.7 mph 20.7 mph 0.00 in   Overcast
5:54 PM 16.0 °F 1.1 °F 3.9 °F 59% 29.94 in 10.0 mi NW 15.0 mph 20.7 mph N/A   Overcast
6:54 PM 15.1 °F 1.1 °F 5.0 °F 64% 29.96 in 10.0 mi NNW 12.7 mph 19.6 mph N/A   Overcast
7:39 PM 14.0 °F -2.0 °F 3.2 °F 62% 29.95 in 10.0 mi NNW 16.1 mph 25.3 mph N/A   Overcast
7:54 PM 14.0 °F -0.2 °F 3.9 °F 64% 29.99 in 10.0 mi NNW 12.7 mph - N/A   Overcast
8:18 PM 12.2 °F -3.1 °F 1.4 °F 62% 29.96 in 10.0 mi NNW 13.8 mph 23.0 mph N/A   Overcast
8:54 PM 12.9 °F 0.7 °F 1.9 °F 62% 30.02 in 10.0 mi NNW 9.2 mph - N/A   Overcast
9:54 PM 12.0 °F -0.4 °F 1.0 °F 61% 30.05 in 9.0 mi NNW 9.2 mph 19.6 mph 0.00 in Snow Light Snow
10:54 PM 10.9 °F -2.6 °F -0.0 °F 61% 30.06 in 9.0 mi NNW 10.4 mph - 0.00 in Snow Light Snow
11:54 PM 10.9 °F -2.6 °F -0.0 °F 61% 30.06 in 9.0 mi NNW 10.4 mph - 0.00 in Snow Light Snow